www.pogodaiklimat.ru

Погода и климат >> Архив погоды >> Пакистан >> Пад Идан


ПОГОДА в Пад Идан

  • Прогноз погоды в Пад Идан
  • Монитор погоды в Пад Идан

АРХИВ ПОГОДЫ в Пад Идан

Время (UTC), дата Ветер
(напр.,м/с)
 
Видим.   Явления Облачность Т
(С)
Тd
(С)
f
(%)
Тe
(С)
Тes
(С)
Комфортность P
(гПа)
Po
(гПа)
Тmin
(С)
Tmax
(С)
R
(мм)
R24
(мм)
S
(см)
09 11.08 С 2 4000 м 8/5 1200 м
[Sc Ac trans]
+36.0 +25.6 55 +51 +56 опасность
перегрева
994.8 989.6
12 11.08 СВ 4 4000 м 9/6 1200 м
[Sc Ac trans]
+33.5 +24.4 59 +46 +47 опасность
перегрева
993.9 988.7 +36.5 0.0
15 11.08 СВ 3 4000 м 3/0
[Ci fib]
+31.0 +23.9 66 +43 +43 опасность
перегрева
995.6 990.4
18 11.08 Ю 2 4000 м 9/5 300 м
[Sc Ac trans]
+30.0 +25.8 78 +45 +45 опасность
перегрева
997.2 991.9
03 12.08 штиль 0 4000 м 9/5 1200 м
[Sc Ac trans]
+27.5 +23.9 81 +38 +40 очень
душно
1001.0 995.8 +25.5
06 12.08 штиль 0 4000 м 9/6 1200 м
[Sc Ac trans]
+29.0 +24.8 78 +41 +50 опасность
перегрева
1002.1 996.9
09 12.08 Ю 1 4000 м 9/6 1200 м
[Sc Ac trans]
+34.0 +24.9 59 +47 +55 опасность
перегрева
1000.3 1000.0
12 12.08 штиль 0 4000 м 8/3 300 м
[Sc Ac trans]
+33.5 +25.9 65 +49 +51 опасность
перегрева
999.6 994.4 +34.5
15 12.08 С 1 4000 м 3/0
[Ci fib]
+32.0 +25.8 70 +47 +47 опасность
перегрева
1000.3 1000.0
18 12.08 ЮВ 1 4000 м ясно +28.0 +25.2 85 +41 +41 опасность
перегрева
1001.1 1000.0
21 12.08 ЮВ 1 4000 м ясно +27.0 +24.7 87 +38 +38 очень
душно
999.8 1000.0
00 13.08 ЮВ 1 4000 м ясно +26.0 +23.8 88 +36 +36 очень
душно
998.9 993.7
03 13.08 ЮВ 1 4000 м 3/0
[Ci fib]
+27.5 +23.9 81 +38 +43 очень
душно
1000.0 994.8 +25.5
06 13.08 Ю 2 4000 м ясно +33.0 +24.6 61 +46 +64 опасность
перегрева
1001.0 995.8
09 13.08 Ю 2 4000 м ясно +37.0 +25.2 51 +51 +69 опасность
перегрева
999.6 994.4
12 13.08 Ю 2 4000 м ясно +36.0 +24.6 52 +49 +53 опасность
перегрева
998.6 993.5 +37.5
18 13.08 Ю 2 4000 м ясно +29.0 +24.8 78 +41 +41 опасность
перегрева
1001.6 996.3
21 13.08 Ю 1 4000 м ясно +27.0 +24.9 88 +39 +39 очень
душно
1000.4 1000.0
00 14.08 Ю 1 4000 м ясно +26.0 +23.8 88 +36 +36 очень
душно
1000.2 995.0
03 14.08 ЮВ 1 4000 м 3/0
[Ci fib]
+27.0 +24.1 84 +37 +42 очень
душно
1001.1 995.9 +25.0
06 14.08 ЮВ 1 4000 м 3/0
[Ci fib]
+31.5 +25.2 69 +45 +67 опасность
перегрева
1001.6 996.4
09 14.08 ЮВ 1 4000 м 3/0
[Ci fib]
+35.5 +25.9 58 +51 +71 опасность
перегрева
1000.3 1000.0
12 14.08 ЮВ 1 4000 м 5/0
[Ci fib]
+35.0 +26.1 60 +51 +55 опасность
перегрева
997.8 992.7 +36.0
15 14.08 ЮВ 1 4000 м 3/0
[Ci fib]
+31.5 +25.2 69 +45 +45 опасность
перегрева
999.4 1000.0
18 14.08 штиль 0 4000 м 3/0
[Ci fib]
+30.0 +25.8 78 +45 +45 опасность
перегрева
1002.3 1000.0
21 14.08 ЮВ 1 4000 м ясно +28.5 +25.0 81 +41 +41 опасность
перегрева
1001.1 995.8
00 15.08 штиль 0 4000 м 4/0
[Ci fib]
+27.0 +24.4 86 +38 +38 очень
душно
1000.5 995.3
03 15.08 штиль 0 4000 м 4/0
[Ac trans]
+29.0 +24.8 78 +41 +46 опасность
перегрева
1001.4 996.2 +26.1
06 15.08 Ю 1 4000 м 3/0
[Ac trans]
+33.0 +25.3 64 +47 +65 опасность
перегрева
1002.1 996.9
09 15.08 Ю 1 4000 м 6/3 1200 м
[Sc Ac trans]
+36.0 +26.4 58 +53 +64 опасность
перегрева
1000.2 995.0
12 15.08 ЮЗ 1 4000 м 4/3 1200 м
[Sc Ac trans]
+35.5 +26.6 60 +52 +55 опасность
перегрева
998.7 993.6 +37.0
15 15.08 ЮЗ 1 4000 м 3/0
[Ci fib]
+32.0 +26.5 73 +49 +49 опасность
перегрева
999.5 1000.0
18 15.08 Ю 1 4000 м 4/0
[Ci fib]
+30.5 +26.4 79 +47 +47 опасность
перегрева
1000.6 1000.0
21 15.08 Ю 1 4000 м 5/3 1200 м
[Sc Ac trans]
+29.0 +25.5 81 +43 +43 опасность
перегрева
1000.1 1000.0
00 16.08 Ю 1 4000 м 6/3 1200 м
[Sc Ac trans]
+27.5 +24.7 85 +39 +39 очень
душно
1000.0 994.8
03 16.08 штиль 0 4000 м 4/0
[Ac trans]
+29.0 +26.2 85 +44 +48 опасность
перегрева
1000.5 995.3 +27.1
06 16.08 Ю 1 4000 м 4/0
[Ac trans]
+34.5 +27.7 68 +54 +72 опасность
перегрева
1001.6 1000.0
09 16.08 штиль 0 4000 м 3/0
[Ac trans]
+38.0 +28.7 59 +60 +80 опасность
перегрева
999.9 1000.0
12 16.08 Ю 1 4000 м 6/0
[Ci fib]
+37.0 +29.0 64 +60 +65 опасность
перегрева
995.7 990.6 +39.1
15 16.08 Ю 1 4000 м 3/0
[Ci fib]
+33.0 +26.8 70 +51 +51 опасность
перегрева
997.2 1000.0
18 16.08 Ю 1 4000 м 6/3 1200 м
[Sc Ci fib]
+30.5 +26.4 79 +47 +47 опасность
перегрева
998.4 1000.0
21 16.08 Ю 1 4000 м 8/3 1200 м
[Sc Ac trans]
+29.0 +25.5 81 +43 +43 опасность
перегрева
997.4 1000.0
00 17.08 Ю 1 4000 м 5/0
[Ci fib]
+28.0 +25.2 85 +41 +41 опасность
перегрева
996.7 991.5
03 17.08 Ю 1 4000 м 4/0
[Ci fib]
+29.0 +25.5 81 +43 +48 опасность
перегрева
997.8 992.6 +27.1
06 17.08 Ю 1 4000 м 3/0
[Ci fib]
+34.0 +24.9 59 +47 +69 опасность
перегрева
998.9 993.8
09 17.08 Ю 1 4000 м ясно +38.5 +25.4 48 +53 +75 опасность
перегрева
997.0 1000.0
12 17.08 Ю 1 4000 м 3/3 1200 м
[Sc]
+38.0 +27.2 54 +56 +59 опасность
перегрева
996.3 991.2 +39.5
15 17.08 Ю 1 4000 м 3/3 300 м
[Sc]
+33.5 +26.6 67 +50 +50 опасность
перегрева
997.8 1000.0
18 17.08 Ю 1 4000 м 3/3 1200 м
[Sc]
+30.5 +24.8 72 +44 +44 опасность
перегрева
999.2 994.0
21 17.08 Ю 1 4000 м ясно +29.0 +24.8 78 +41 +41 опасность
перегрева
998.6 993.3
00 18.08 Ю 1 4000 м ясно +27.5 +23.9 81 +38 +38 очень
душно
997.7 992.5
03 18.08 Ю 1 4000 м ясно +29.0 +24.8 78 +41 +46 опасность
перегрева
1000.7 995.5 +26.5
06 18.08 Ю 1 4000 м ясно +34.0 +24.1 56 +46 +69 опасность
перегрева
1001.9 996.8

 

Местоположение метеостанции Пад Идан (Пакистан): широта 26.85 долгота 68.13 высота над уровнем моря 47 м.

В архиве по умолчанию представлена погода в Пад Идан за последнюю неделю. Архивные данные за месяц целиком и за предыдущие месяцы, начиная с января 2011 года, Вы можете получить, выбрав интересующий диапазон дат из раскрывающегося списка и нажав кнопку "Ввод!".


*Определитесь, кто Вы:
робот инопланетянин человек

Внимание! Время в таблицах - всемирное. Для получения местного времени необходимо прибавить поправку, которая равна 5 ч.

Смотрите также архив погоды в соседних городах и на ближайших метеорологических станциях:

Погода в Мохенджо-Даро (Пакистан) (52 км)
Погода в Навабшахе (Пакистан) (71 км)
Погода в Ларкане (Пакистан) (78 км)
Погода в Суккуре (Пакистан) (115 км)
Погода в Рохри (Пакистан) (119 км)
Погода в Даду (Пакистан) (138 км)
Погода в Джейкобабаде (Пакистан) (165 км)
Погода в Хайдарабате (Пакистан) (166 км)
Погода в Мир Пур Кхас (Пакистан) (170 км)
Погода в Хуздаре (Пакистан) (184 км)

Пояснения к столбцам:

Ветер - указаны скорость ветра в м/с - средняя за 10 мин, порывы в срок и между сроками (в фигурных скобках) и направление, откуда дует ветер: С - северный, СВ - северо-восточный, В - восточный, ЮВ - юго-восточный, Ю - южный, ЮЗ - юго-западный, З - западный, СЗ - северо-западный.
Видимость - горизонтальная дальность видимости в метрах или километрах. При видимости от 1 до 10 км при отсутствии осадков обычно наблюдается дымка, при ухудшении видимости до 1 км и менее - туман. В сухую погоду видимость может ухудшаться дымом, пылью или мглою.
Явления - указаны атмосферные явления, наблюдавшиеся в срок или в последний час перед сроком; фигурными скобками обозначены явления, наблюдавшиеся между сроками (за 1-3 часа до срока); квадратными скобками обозначены град или гололедные отложения с указанием их диаметра в мм.
Облачность - указаны через наклонную черту общая и нижняя облачность в баллах и высота нижней границы облаков в метрах; квадратными скобками обозначены формы облаков: Ci - перистые, Cs - перисто-слоистые, Cc - перисто-кучевые, Ac - высококучевые, As - высокослоистые, Sc - слоисто-кучевые, Ns - слоисто-дождевые, Cu - кучевые, Cb - кучево-дождевые. Подробнее классификацию облаков см. в Атласе облаков (PDF).
T - Температура воздуха - температура, измеренная на высоте 2 м над землей.
Td - Температура точки росы - температура, при понижении до которой содержащийся в воздухе водяной пар достигнет насыщения.
f - Относительная влажность воздуха - влажноcть воздуха, измеренная на высоте 2 м над землей.
Te - Эффективная температура - температура, которую ощущает одетый по сезону человек в тени. Характеристика душности погоды. При расчете учитывается влияние влажности воздуха и скорости ветра на теплоощущения человека.
Tes - Эффективная температура на солнце - температура, которую ощущает человек, с поправкой на солнечный нагрев. Характеристика знойности погоды. Зависит от высоты солнца над горизонтом, облачности и скорости ветра. Ночью, в пасмурную погоду, а также при ветре 12 м/с и более поправка равна нулю.
P - Атмосферное давление - приведенное к уровню моря атмосферное давление.
Po - Атмосферное давление - измеренное на уровне метеостанции атмосферное давление.
Tmin - Минимальная температура - минимум температуры воздуха на высоте 2 м над землей.
Tmax - Максимальная температура - максимум температуры воздуха на высоте 2 м над землей.
R - Количество осадков - Количество выпавших осадков за период времени, мм. При наведении курсора мыши на число - период времени, за который выпало указанное количество осадков.
R24 - Количество осадков - Количество выпавших осадков за 24 часа, мм.
S - Снежный покров - Высота снежного покрова, см. При наведении курсора мыши на число - состояние снежного покрова и степень покрытия местности в баллах.